Cloud_Cover
8 53 93 72 93 99 96 99 74 58 97 99 90 62 20 1 83 64 0 0 2 5
100 100 100 100 97 100 99 100 100 99 100 100 100 100 100 55 2 100 13 0 2 15
100 100 100 100 100 100 100 100 100 100 100 100 100 100 100 100 40 81 99 1 0 10
100 100 100 100 100 100 100 100 100 100 100 100 100 100 100 100 99 24 100 0 0 1
100 100 86 100 100 100 100 100 100 100 100 100 100 100 100 100 100 8 100 38 0 39
100 100 89 100 100 100 100 100 100 100 100 100 100 100 100 100 100 65 89 100 0 9
100 100 100 100 100 100 100 100 100 100 100 100 100 100 100 100 100 100 34 100 15 0
99 98 100 100 100 100 100 100 100 100 100 100 100 100 100 100 100 100 38 100 10 13
100 100 100 100 100 100 100 100 100 100 100 100 100 100 100 100 100 100 100 100 100 100
100 100 100 100 100 100 100 100 100 100 100 100 100 100 100 100 100 100 100 100 100 100
100 100 100 100 100 100 100 100 100 100 100 100 100 100 100 100 100 100 100 100 100 100
100 100 100 100 100 100 100 100 100 100 100 100 100 100 100 100 100 100 100 100 100 100
100 100 100 100 100 100 100 100 100 100 100 100 100 100 100 100 100 100 100 100 100 100
100 100 100 100 100 100 100 100 100 100 100 100 100 100 100 100 100 100 100 100 100 100